| time (UTC) | temp C | wind direction | speed KPH | gust KPH | rain 1hr cm | rain 24hr cm | rain mn cm | humidity % | barometer mb |
| 20260507222506 | 8 | 127 | 1.6 | 3.2 | 0.00 | 0.36 | 0.00 | 85 | 1009.4 |
| 20260507222006 | 8 | 105 | 3.2 | 6.4 | 0.00 | 0.36 | 0.00 | 83 | 1009.5 |
| 20260507221505 | 8 | 95 | 3.2 | 6.4 | 0.00 | 0.36 | 0.00 | 83 | 1009.4 |
| 20260507221005 | 8 | 96 | 3.2 | 6.4 | 0.00 | 0.36 | 0.00 | 82 | 1009.3 |
| 20260507220505 | 8 | 103 | 0.0 | 3.2 | 0.00 | 0.36 | 0.00 | 81 | 1009.2 |
| 20260507220009 | 8 | 120 | 1.6 | 3.2 | 0.00 | 0.36 | 0.00 | 84 | 1009.2 |
| 20260507215506 | 8 | 0 | 0.0 | 0.0 | 0.00 | 0.36 | 0.36 | 83 | 1009.1 |
| 20260507215005 | 8 | 135 | 0.0 | 3.2 | 0.00 | 0.36 | 0.36 | 82 | 1009.4 |
| 20260507214505 | 8 | 160 | 0.0 | 3.2 | 0.00 | 0.36 | 0.36 | 81 | 1009.0 |
| 20260507214005 | 8 | 181 | 0.0 | 3.2 | 0.00 | 0.36 | 0.36 | 84 | 1009.3 |
| 20260507213505 | 8 | 178 | 3.2 | 3.2 | 0.00 | 0.36 | 0.36 | 85 | 1009.1 |
| 20260507213006 | 8 | 178 | 3.2 | 3.2 | 0.00 | 0.36 | 0.36 | 85 | 1009.2 |
| 20260507212505 | 8 | 181 | 3.2 | 3.2 | 0.00 | 0.36 | 0.36 | 86 | 1009.3 |
| 20260507212006 | 8 | 181 | 3.2 | 3.2 | 0.00 | 0.36 | 0.36 | 85 | 1009.1 |
| 20260507211505 | 8 | 181 | 3.2 | 3.2 | 0.00 | 0.36 | 0.36 | 85 | 1009.1 |
| 20260507211006 | 8 | 181 | 3.2 | 3.2 | 0.00 | 0.36 | 0.36 | 85 | 1009.3 |
| 20260507210505 | 8 | 181 | 3.2 | 3.2 | 0.00 | 0.38 | 0.36 | 85 | 1009.4 |
| 20260507205505 | 8 | 187 | 3.2 | 6.4 | 0.00 | 0.38 | 0.36 | 87 | 1009.3 |
| 20260507205006 | 8 | 187 | 3.2 | 6.4 | 0.00 | 0.38 | 0.36 | 87 | 1009.3 |
| 20260507204505 | 8 | 186 | 4.8 | 6.4 | 0.00 | 0.38 | 0.36 | 87 | 1009.1 |
| 20260507204006 | 8 | 182 | 4.8 | 6.4 | 0.00 | 0.38 | 0.36 | 87 | 1009.1 |
| 20260507203505 | 8 | 161 | 4.8 | 9.7 | 0.00 | 0.38 | 0.36 | 86 | 1009.1 |
| 20260507203006 | 8 | 148 | 3.2 | 9.7 | 0.00 | 0.38 | 0.36 | 87 | 1009.2 |
| 20260507202006 | 8 | 144 | 6.4 | 9.7 | 0.00 | 0.38 | 0.36 | 86 | 1009.1 |
| 20260507201505 | 8 | 147 | 3.2 | 6.4 | 0.00 | 0.38 | 0.36 | 86 | 1008.9 |
| 20260507201006 | 8 | 144 | 3.2 | 6.4 | 0.00 | 0.38 | 0.36 | 87 | 1009.0 |
| 20260507200505 | 8 | 144 | 4.8 | 6.4 | 0.00 | 0.38 | 0.36 | 86 | 1008.7 |
| 20260507200006 | 8 | 146 | 3.2 | 6.4 | 0.00 | 0.38 | 0.36 | 86 | 1008.7 |
| 20260507195006 | 8 | 136 | 4.8 | 9.7 | 0.00 | 0.38 | 0.36 | 87 | 1008.7 |
| 20260507194505 | 8 | 144 | 6.4 | 9.7 | 0.00 | 0.38 | 0.36 | 86 | 1008.7 |
| 20260507194006 | 8 | 140 | 3.2 | 6.4 | 0.00 | 0.38 | 0.36 | 85 | 1008.5 |
| 20260507193505 | 8 | 135 | 6.4 | 6.4 | 0.00 | 0.38 | 0.36 | 84 | 1008.5 |
| 20260507192505 | 8 | 135 | 6.4 | 9.7 | 0.00 | 0.38 | 0.36 | 83 | 1008.6 |
| 20260507191506 | 8 | 130 | 6.4 | 11.3 | 0.00 | 0.38 | 0.36 | 86 | 1008.2 |
| 20260507191005 | 8 | 127 | 6.4 | 11.3 | 0.00 | 0.38 | 0.36 | 87 | 1008.1 |
| 20260507190506 | 8 | 124 | 4.8 | 9.7 | 0.00 | 0.38 | 0.36 | 88 | 1008.2 |
| 20260507190006 | 8 | 125 | 6.4 | 11.3 | 0.00 | 0.38 | 0.36 | 87 | 1008.3 |
| 20260507185505 | 8 | 125 | 6.4 | 11.3 | 0.00 | 0.38 | 0.36 | 87 | 1008.1 |
| 20260507185006 | 8 | 125 | 6.4 | 11.3 | 0.00 | 0.43 | 0.36 | 87 | 1008.0 |
| 20260507184005 | 8 | 118 | 6.4 | 12.9 | 0.00 | 0.53 | 0.36 | 88 | 1008.3 |
| 20260507182505 | 8 | 119 | 8.0 | 14.5 | 0.00 | 0.61 | 0.36 | 88 | 1007.9 |
| 20260507182005 | 8 | 118 | 6.4 | 14.5 | 0.00 | 0.61 | 0.36 | 89 | 1008.0 |
| 20260507181506 | 8 | 113 | 6.4 | 9.7 | 0.00 | 0.61 | 0.36 | 89 | 1007.9 |
| 20260507181005 | 8 | 115 | 6.4 | 9.7 | 0.00 | 0.61 | 0.36 | 89 | 1007.9 |
| 20260507180506 | 8 | 126 | 4.8 | 9.7 | 0.00 | 0.61 | 0.36 | 90 | 1007.6 |
| 20260507175506 | 8 | 124 | 4.8 | 6.4 | 0.00 | 0.61 | 0.36 | 89 | 1007.7 |
| 20260507175005 | 9 | 128 | 3.2 | 9.7 | 0.00 | 0.61 | 0.36 | 87 | 1007.5 |
| 20260507174506 | 9 | 120 | 4.8 | 9.7 | 0.00 | 0.64 | 0.36 | 87 | 1007.5 |
| 20260507174005 | 8 | 115 | 6.4 | 9.7 | 0.00 | 0.64 | 0.36 | 88 | 1007.8 |
| 20260507173506 | 8 | 113 | 4.8 | 9.7 | 0.00 | 0.64 | 0.36 | 89 | 1007.6 |
| 20260507173005 | 9 | 109 | 4.8 | 9.7 | 0.00 | 0.64 | 0.36 | 87 | 1007.6 |
| 20260507172505 | 8 | 118 | 4.8 | 9.7 | 0.00 | 0.64 | 0.36 | 87 | 1007.6 |
| 20260507172005 | 9 | 124 | 3.2 | 11.3 | 0.00 | 0.64 | 0.36 | 85 | 1007.4 |
| 20260507171506 | 9 | 127 | 4.8 | 11.3 | 0.00 | 0.64 | 0.36 | 86 | 1007.5 |
| 20260507170506 | 9 | 112 | 6.4 | 9.7 | 0.00 | 0.66 | 0.36 | 87 | 1007.4 |
| 20260507170005 | 9 | 107 | 6.4 | 6.4 | 0.00 | 0.66 | 0.36 | 86 | 1007.5 |
| 20260507165506 | 9 | 103 | 4.8 | 9.7 | 0.00 | 0.66 | 0.36 | 85 | 1007.4 |
| 20260507165005 | 9 | 103 | 3.2 | 9.7 | 0.00 | 0.66 | 0.36 | 87 | 1007.5 |
| 20260507164505 | 9 | 102 | 4.8 | 11.3 | 0.00 | 0.66 | 0.36 | 85 | 1007.3 |
| 20260507164006 | 10 | 99 | 6.4 | 11.3 | 0.00 | 0.69 | 0.36 | 85 | 1007.5 |
| 20260507163505 | 10 | 105 | 6.4 | 11.3 | 0.00 | 0.69 | 0.36 | 84 | 1007.5 |
| 20260507162006 | 9 | 108 | 3.2 | 6.4 | 0.00 | 0.71 | 0.36 | 87 | 1007.3 |
| 20260507161506 | 9 | 107 | 3.2 | 6.4 | 0.00 | 0.71 | 0.36 | 87 | 1007.3 |
| 20260507161005 | 9 | 92 | 4.8 | 6.4 | 0.00 | 0.71 | 0.36 | 86 | 1006.7 |
| 20260507160505 | 10 | 93 | 3.2 | 6.4 | 0.00 | 0.71 | 0.36 | 87 | 1007.3 |
| 20260507160006 | 10 | 101 | 3.2 | 6.4 | 0.00 | 0.71 | 0.36 | 84 | 1007.4 |
| 20260507155505 | 11 | 98 | 3.2 | 6.4 | 0.00 | 0.71 | 0.36 | 84 | 1007.3 |
| 20260507155006 | 11 | 98 | 3.2 | 6.4 | 0.00 | 0.71 | 0.36 | 83 | 1007.3 |
| 20260507154505 | 10 | 112 | 0.0 | 3.2 | 0.00 | 0.71 | 0.36 | 84 | 1007.3 |
| 20260507153505 | 11 | 91 | 0.0 | 6.4 | 0.00 | 0.71 | 0.36 | 84 | 1006.6 |
| 20260507153005 | 10 | 99 | 0.0 | 6.4 | 0.00 | 0.71 | 0.36 | 85 | 1007.3 |
| 20260507152506 | 10 | 127 | 3.2 | 9.7 | 0.00 | 0.71 | 0.36 | 85 | 1007.2 |
| 20260507150006 | 9 | 314 | 0.0 | 3.2 | 0.00 | 0.71 | 0.36 | 90 | 1007.4 |
| 20260507145006 | 10 | 314 | 1.6 | 3.2 | 0.00 | 0.79 | 0.36 | 87 | 1007.6 |
| 20260507144505 | 10 | 0 | 0.0 | 0.0 | 0.00 | 0.81 | 0.36 | 91 | 1007.4 |
| 20260507144006 | 10 | 0 | 0.0 | 0.0 | 0.00 | 0.81 | 0.36 | 92 | 1007.4 |
| 20260507143005 | 10 | 314 | 0.0 | 3.2 | 0.00 | 0.86 | 0.36 | 89 | 1006.7 |
| 20260507142505 | 10 | 314 | 0.0 | 3.2 | 0.00 | 0.89 | 0.36 | 88 | 1007.5 |
| 20260507141007 | 10 | 0 | 0.0 | 0.0 | 0.00 | 1.02 | 0.36 | 89 | 1007.5 |
| 20260507140006 | 10 | 106 | 0.0 | 3.2 | 0.00 | 1.04 | 0.36 | 87 | 1007.5 |
| 20260507135006 | 10 | 120 | 1.6 | 6.4 | 0.00 | 1.04 | 0.36 | 85 | 1007.4 |
| 20260507134505 | 10 | 120 | 3.2 | 6.4 | 0.00 | 1.09 | 0.36 | 84 | 1007.4 |
| 20260507133505 | 10 | 111 | 1.6 | 9.7 | 0.00 | 1.09 | 0.36 | 88 | 1007.5 |
| 20260507133006 | 10 | 91 | 1.6 | 11.3 | 0.00 | 1.09 | 0.36 | 87 | 1007.5 |
| 20260507132505 | 11 | 90 | 1.6 | 11.3 | 0.00 | 1.09 | 0.36 | 84 | 1007.4 |
| 20260507132005 | 10 | 119 | 1.6 | 6.4 | 0.00 | 1.09 | 0.36 | 91 | 1007.7 |
| 20260507131005 | 10 | 123 | 0.0 | 9.7 | 0.00 | 1.09 | 0.36 | 93 | 1007.6 |
| 20260507130505 | 9 | 129 | 3.2 | 9.7 | 0.00 | 1.12 | 0.36 | 90 | 1007.7 |
| 20260507130006 | 10 | 113 | 3.2 | 6.4 | 0.00 | 1.12 | 0.36 | 93 | 1007.8 |
| 20260507125505 | 10 | 103 | 3.2 | 6.4 | 0.00 | 1.14 | 0.36 | 94 | 1007.6 |
| 20260507125006 | 9 | 115 | 0.0 | 6.4 | 0.00 | 1.14 | 0.36 | 94 | 1007.5 |
| 20260507124505 | 9 | 101 | 1.6 | 9.7 | 0.00 | 1.14 | 0.36 | 92 | 1007.7 |
| 20260507124005 | 9 | 87 | 1.6 | 9.7 | 0.00 | 1.14 | 0.36 | 91 | 1007.5 |
| 20260507123505 | 10 | 85 | 4.8 | 6.4 | 0.00 | 1.14 | 0.36 | 89 | 1007.4 |
| 20260507122505 | 9 | 108 | 3.2 | 6.4 | 0.00 | 1.14 | 0.36 | 93 | 1006.9 |
| 20260507122010 | 9 | 104 | 3.2 | 6.4 | 0.00 | 1.14 | 0.36 | 94 | 1007.4 |
| 20260507121505 | 8 | 97 | 1.6 | 6.4 | 0.00 | 1.14 | 0.36 | 98 | 1007.4 |
| 20260507120505 | 8 | 111 | 0.0 | 6.4 | 0.00 | 1.14 | 0.36 | 99 | 1007.4 |
| 20260507120006 | 8 | 95 | 0.0 | 9.7 | 0.00 | 1.14 | 0.36 | 99 | 1007.6 |
| 20260507115505 | 8 | 95 | 3.2 | 9.7 | 0.00 | 1.14 | 0.36 | 99 | 1007.5 |
| 20260507115005 | 9 | 105 | 1.6 | 9.7 | 0.00 | 1.14 | 0.36 | 99 | 1007.6 |
| 20260507114505 | 7 | 103 | 1.6 | 9.7 | 0.00 | 1.17 | 0.36 | 99 | 1007.7 |
| 20260507114006 | 8 | 84 | 1.6 | 6.4 | 0.00 | 1.17 | 0.36 | 99 | 1007.6 |
| 20260507113505 | 9 | 86 | 1.6 | 6.4 | 0.00 | 1.17 | 0.36 | 99 | 1007.6 |
| 20260507113006 | 10 | 96 | 0.0 | 6.4 | 0.00 | 1.17 | 0.36 | 99 | 1007.6 |
| 20260507112506 | 8 | 100 | 1.6 | 6.4 | 0.00 | 1.17 | 0.36 | 99 | 1007.6 |
| 20260507111507 | 7 | 96 | 3.2 | 6.4 | 0.00 | 1.19 | 0.36 | 99 | 1007.8 |
| 20260507111005 | 7 | 93 | 3.2 | 6.4 | 0.00 | 1.19 | 0.36 | 99 | 1007.8 |
| 20260507110506 | 8 | 99 | 0.0 | 6.4 | 0.00 | 1.19 | 0.36 | 99 | 1007.8 |
| 20260507110005 | 8 | 103 | 1.6 | 6.4 | 0.00 | 1.19 | 0.36 | 99 | 1008.0 |
| 20260507105505 | 8 | 100 | 3.2 | 6.4 | 0.00 | 1.19 | 0.36 | 99 | 1007.6 |
| 20260507105005 | 7 | 93 | 3.2 | 11.3 | 0.00 | 1.19 | 0.36 | 99 | 1007.8 |
| 20260507104005 | 8 | 96 | 1.6 | 6.4 | 0.00 | 1.19 | 0.36 | 99 | 1007.9 |
| 20260507102007 | 7 | 93 | 0.0 | 6.4 | 0.00 | 1.19 | 0.36 | 99 | 1007.7 |
| 20260507101507 | 7 | 95 | 3.2 | 6.4 | 0.00 | 1.19 | 0.36 | 99 | 1007.9 |
| 20260507101005 | 7 | 91 | 1.6 | 6.4 | 0.00 | 1.19 | 0.36 | 99 | 1007.7 |
| 20260507100506 | 8 | 92 | 3.2 | 6.4 | 0.00 | 1.19 | 0.36 | 99 | 1007.7 |
| 20260507100005 | 7 | 97 | 1.6 | 6.4 | 0.00 | 1.19 | 0.36 | 99 | 1007.9 |
| 20260507095506 | 7 | 93 | 4.8 | 6.4 | 0.00 | 1.19 | 0.36 | 99 | 1007.8 |
| 20260507095005 | 8 | 93 | 3.2 | 6.4 | 0.00 | 1.19 | 0.36 | 99 | 1007.5 |
| 20260507094506 | 7 | 98 | 4.8 | 6.4 | 0.00 | 1.19 | 0.36 | 99 | 1007.7 |
| 20260507094005 | 7 | 115 | 0.0 | 6.4 | 0.00 | 1.19 | 0.36 | 99 | 1007.6 |
| 20260507093505 | 7 | 108 | 1.6 | 6.4 | 0.00 | 1.19 | 0.36 | 99 | 1007.6 |
| 20260507093005 | 6 | 92 | 0.0 | 6.4 | 0.00 | 1.19 | 0.36 | 99 | 1007.6 |
| 20260507092505 | 6 | 90 | 1.6 | 6.4 | 0.00 | 1.19 | 0.36 | 99 | 1007.6 |
| 20260507092006 | 7 | 85 | 3.2 | 6.4 | 0.00 | 1.19 | 0.36 | 99 | 1007.4 |
| 20260507091505 | 6 | 92 | 0.0 | 6.4 | 0.00 | 1.19 | 0.36 | 99 | 1007.6 |
| 20260507090505 | 5 | 92 | 3.2 | 6.4 | 0.00 | 1.19 | 0.36 | 99 | 1007.6 |
| 20260507090006 | 6 | 92 | 0.0 | 3.2 | 0.00 | 1.19 | 0.36 | 99 | 1007.3 |
| 20260507085505 | 6 | 94 | 1.6 | 3.2 | 0.00 | 1.22 | 0.36 | 99 | 1007.4 |
| 20260507085006 | 6 | 112 | 0.0 | 3.2 | 0.00 | 1.22 | 0.36 | 99 | 1007.4 |
| 20260507084505 | 6 | 102 | 1.6 | 6.4 | 0.00 | 1.30 | 0.36 | 99 | 1007.3 |
| 20260507084006 | 6 | 101 | 0.0 | 6.4 | 0.00 | 1.35 | 0.36 | 99 | 1007.3 |
| 20260507083005 | 6 | 68 | 1.6 | 3.2 | 0.00 | 1.37 | 0.36 | 99 | 1007.3 |
| 20260507082506 | 6 | 90 | 0.0 | 3.2 | 0.00 | 1.37 | 0.36 | 99 | 1007.2 |
| 20260507082006 | 6 | 0 | 0.0 | 0.0 | 0.00 | 1.42 | 0.36 | 99 | 1007.1 |
| 20260507081512 | 6 | 0 | 0.0 | 0.0 | 0.00 | 1.42 | 0.36 | 99 | 1007.2 |
| 20260507081005 | 6 | 0 | 0.0 | 0.0 | 0.00 | 1.45 | 0.36 | 99 | 1007.3 |
| 20260507080006 | 6 | 0 | 0.0 | 0.0 | 0.00 | 1.45 | 0.36 | 99 | 1007.1 |
| 20260507075505 | 6 | 0 | 0.0 | 0.0 | 0.00 | 1.45 | 0.36 | 99 | 1006.9 |
| 20260507075005 | 6 | 0 | 0.0 | 0.0 | 0.00 | 1.45 | 0.36 | 99 | 1007.0 |
| 20260507074506 | 6 | 90 | 0.0 | 3.2 | 0.00 | 1.47 | 0.36 | 99 | 1007.0 |
| 20260507074005 | 6 | 101 | 0.0 | 3.2 | 0.00 | 1.47 | 0.36 | 99 | 1006.7 |
| 20260507073506 | 5 | 122 | 0.0 | 3.2 | 0.00 | 1.47 | 0.36 | 99 | 1007.0 |
| 20260507073005 | 5 | 136 | 0.0 | 3.2 | 0.00 | 1.50 | 0.36 | 99 | 1007.1 |
| 20260507072505 | 6 | 0 | 0.0 | 0.0 | 0.00 | 1.50 | 0.36 | 99 | 1006.9 |
| 20260507072006 | 6 | 0 | 0.0 | 0.0 | 0.00 | 1.50 | 0.36 | 99 | 1006.9 |
| 20260507071505 | 6 | 0 | 0.0 | 0.0 | 0.00 | 1.50 | 0.36 | 99 | 1007.0 |
| 20260507071006 | 6 | 0 | 0.0 | 0.0 | 0.00 | 1.50 | 0.36 | 99 | 1007.0 |
| 20260507070505 | 6 | 0 | 0.0 | 0.0 | 0.00 | 1.50 | 0.36 | 99 | 1006.9 |
| 20260507070010 | 6 | 0 | 0.0 | 0.0 | 0.00 | 1.50 | 0.36 | 99 | 1006.7 |
| 20260507065005 | 5 | 90 | 0.0 | 3.2 | 0.00 | 1.50 | 0.36 | 99 | 1006.7 |
| 20260507064505 | 5 | 82 | 0.0 | 3.2 | 0.00 | 1.50 | 0.36 | 99 | 1006.5 |
| 20260507064006 | 5 | 78 | 0.0 | 3.2 | 0.00 | 1.50 | 0.36 | 99 | 1006.4 |
| 20260507063505 | 5 | 0 | 0.0 | 0.0 | 0.00 | 1.50 | 0.36 | 99 | 1006.4 |
| 20260507063005 | 4 | 0 | 0.0 | 0.0 | 0.00 | 1.50 | 0.36 | 99 | 1006.7 |
| 20260507062506 | 4 | 314 | 0.0 | 3.2 | 0.00 | 1.50 | 0.36 | 99 | 1006.6 |
| 20260507062005 | 4 | 314 | 0.0 | 3.2 | 0.00 | 1.50 | 0.36 | 99 | 1006.7 |
| 20260507061506 | 4 | 314 | 0.0 | 3.2 | 0.00 | 1.52 | 0.36 | 99 | 1006.5 |
| 20260507061005 | 4 | 314 | 0.0 | 3.2 | 0.00 | 1.52 | 0.36 | 99 | 1006.4 |
| 20260507060505 | 4 | 323 | 0.0 | 3.2 | 0.00 | 1.52 | 0.36 | 99 | 1006.5 |
| 20260507060005 | 3 | 341 | 1.6 | 3.2 | 0.00 | 1.55 | 0.36 | 99 | 1006.0 |
| 20260507055506 | 4 | 1 | 0.0 | 3.2 | 0.00 | 1.55 | 0.36 | 99 | 1006.2 |
| 20260507055005 | 4 | 96 | 0.0 | 3.2 | 0.00 | 1.55 | 0.36 | 99 | 1006.2 |
| 20260507054506 | 4 | 96 | 0.0 | 3.2 | 0.00 | 1.55 | 0.36 | 99 | 1006.1 |
| 20260507054005 | 4 | 96 | 3.2 | 6.4 | 0.00 | 1.55 | 0.36 | 99 | 1006.4 |
| 20260507053506 | 5 | 95 | 3.2 | 6.4 | 0.00 | 1.55 | 0.36 | 99 | 1006.1 |
| 20260507053005 | 5 | 94 | 3.2 | 6.4 | 0.00 | 1.60 | 0.36 | 99 | 1006.1 |
| 20260507052506 | 5 | 95 | 3.2 | 6.4 | 0.00 | 1.60 | 0.36 | 99 | 1006.1 |
| 20260507051005 | 5 | 86 | 3.2 | 6.4 | 0.00 | 1.63 | 0.36 | 99 | 1005.7 |
| 20260507050505 | 4 | 75 | 4.8 | 6.4 | 0.00 | 1.63 | 0.36 | 99 | 1005.8 |
| 20260507050006 | 4 | 79 | 0.0 | 6.4 | 0.00 | 1.65 | 0.36 | 99 | 1005.7 |
| 20260507045505 | 4 | 85 | 3.2 | 6.4 | 0.00 | 1.65 | 0.36 | 99 | 1005.6 |
| 20260507045005 | 4 | 74 | 3.2 | 6.4 | 0.00 | 1.65 | 0.36 | 99 | 1005.6 |
| 20260507044506 | 4 | 22 | 3.2 | 6.4 | 0.00 | 1.68 | 0.36 | 99 | 1005.6 |
| 20260507044005 | 4 | 1 | 0.0 | 3.2 | 0.00 | 1.70 | 0.36 | 99 | 1005.6 |
| 20260507043506 | 4 | 1 | 1.6 | 3.2 | 0.00 | 1.70 | 0.36 | 99 | 1005.8 |
| 20260507043005 | 4 | 1 | 1.6 | 3.2 | 0.00 | 1.70 | 0.36 | 99 | 1005.8 |
| 20260507042505 | 4 | 0 | 0.0 | 0.0 | 0.00 | 1.75 | 0.36 | 99 | 1005.6 |
| 20260507042006 | 4 | 0 | 0.0 | 0.0 | 0.00 | 1.75 | 0.36 | 99 | 1005.6 |
| 20260507041505 | 4 | 0 | 0.0 | 0.0 | 0.00 | 1.75 | 0.36 | 99 | 1005.6 |
| 20260507041006 | 4 | 0 | 0.0 | 0.0 | 0.00 | 1.75 | 0.36 | 99 | 1005.5 |
| 20260507040505 | 4 | 0 | 0.0 | 0.0 | 0.00 | 1.75 | 0.36 | 99 | 1005.5 |
| 20260507040006 | 4 | 0 | 0.0 | 0.0 | 0.00 | 1.75 | 0.36 | 99 | 1005.4 |
| 20260507035006 | 4 | 0 | 0.0 | 0.0 | 0.03 | 1.75 | 0.36 | 99 | 1005.6 |
| 20260507034505 | 4 | 0 | 0.0 | 0.0 | 0.03 | 1.75 | 0.36 | 99 | 1005.7 |
| 20260507034006 | 4 | 0 | 0.0 | 0.0 | 0.03 | 1.75 | 0.36 | 99 | 1005.5 |
| 20260507033505 | 4 | 292 | 0.0 | 3.2 | 0.03 | 1.78 | 0.36 | 99 | 1005.5 |
| 20260507032506 | 4 | 293 | 1.6 | 3.2 | 0.03 | 1.88 | 0.36 | 99 | 1005.5 |
| 20260507032006 | 3 | 298 | 3.2 | 3.2 | 0.03 | 1.88 | 0.36 | 99 | 1005.4 |
| 20260507031505 | 3 | 297 | 3.2 | 3.2 | 0.05 | 1.88 | 0.36 | 99 | 1005.4 |
| 20260507030505 | 3 | 326 | 3.2 | 3.2 | 0.05 | 1.93 | 0.36 | 99 | 1005.4 |
| 20260507030006 | 3 | 337 | 3.2 | 3.2 | 0.13 | 1.96 | 0.36 | 99 | 1005.5 |
| 20260507025505 | 3 | 326 | 3.2 | 3.2 | 0.15 | 1.98 | 0.36 | 99 | 1005.5 |
| 20260507025006 | 3 | 311 | 1.6 | 3.2 | 0.13 | 1.96 | 0.33 | 99 | 1005.5 |
| 20260507024005 | 3 | 292 | 3.2 | 3.2 | 0.13 | 1.98 | 0.33 | 99 | 1005.6 |
| 20260507023506 | 3 | 290 | 1.6 | 3.2 | 0.13 | 1.98 | 0.33 | 99 | 1005.7 |
| 20260507023005 | 3 | 290 | 3.2 | 3.2 | 0.13 | 1.98 | 0.33 | 99 | 1005.6 |
| 20260507022006 | 3 | 295 | 3.2 | 6.4 | 0.13 | 1.98 | 0.33 | 99 | 1005.7 |
| 20260507021505 | 3 | 296 | 3.2 | 6.4 | 0.10 | 1.96 | 0.30 | 99 | 1005.5 |
| 20260507021006 | 3 | 294 | 3.2 | 6.4 | 0.10 | 1.96 | 0.30 | 99 | 1005.3 |
| 20260507015506 | 3 | 281 | 8.0 | 12.9 | 0.05 | 1.88 | 0.20 | 99 | 1005.5 |
| 20260507015005 | 3 | 292 | 3.2 | 6.4 | 0.05 | 1.88 | 0.20 | 99 | 1005.4 |
| 20260507014506 | 3 | 292 | 4.8 | 6.4 | 0.05 | 1.88 | 0.20 | 99 | 1005.3 |
| 20260507014005 | 3 | 298 | 3.2 | 6.4 | 0.10 | 1.88 | 0.20 | 99 | 1005.4 |
| 20260507013505 | 3 | 301 | 3.2 | 6.4 | 0.10 | 1.88 | 0.20 | 99 | 1005.4 |
| 20260507013005 | 3 | 295 | 4.8 | 6.4 | 0.10 | 1.88 | 0.20 | 99 | 1005.2 |
| 20260507012506 | 3 | 292 | 3.2 | 6.4 | 0.10 | 1.88 | 0.20 | 99 | 1005.4 |
| 20260507012005 | 3 | 292 | 3.2 | 6.4 | 0.10 | 1.88 | 0.20 | 99 | 1005.2 |
| 20260507011505 | 3 | 292 | 3.2 | 6.4 | 0.10 | 1.88 | 0.20 | 99 | 1005.2 |
| 20260507010506 | 3 | 274 | 3.2 | 6.4 | 0.15 | 1.88 | 0.20 | 99 | 1005.2 |
| 20260507010006 | 4 | 264 | 3.2 | 6.4 | 0.13 | 1.85 | 0.18 | 99 | 1005.1 |
| 20260507005505 | 3 | 281 | 0.0 | 3.2 | 0.10 | 1.83 | 0.15 | 99 | 1005.0 |
| 20260507005006 | 3 | 269 | 0.0 | 3.2 | 0.10 | 1.83 | 0.15 | 99 | 1005.0 |
| 20260507004505 | 3 | 206 | 1.6 | 9.7 | 0.13 | 1.83 | 0.15 | 99 | 1005.0 |
| 20260507003505 | 5 | 122 | 6.4 | 11.3 | 0.10 | 1.80 | 0.13 | 99 | 1005.2 |
| 20260507003005 | 3 | 287 | 1.6 | 6.4 | 0.13 | 1.80 | 0.13 | 99 | 1005.2 |
| 20260507002505 | 3 | 294 | 3.2 | 6.4 | 0.13 | 1.80 | 0.13 | 99 | 1005.2 |
| 20260507002005 | 3 | 283 | 0.0 | 9.7 | 0.13 | 1.80 | 0.13 | 99 | 1005.1 |
| 20260507001505 | 4 | 290 | 3.2 | 9.7 | 0.13 | 1.80 | 0.13 | 99 | 1005.1 |
| 20260507001005 | 4 | 309 | 3.2 | 6.4 | 0.10 | 1.78 | 0.10 | 99 | 1005.2 |
| 20260507000505 | 4 | 310 | 4.8 | 9.7 | 0.05 | 1.78 | 0.05 | 99 | 1005.3 |
| 20260507000006 | 3 | 301 | 4.8 | 9.7 | 0.05 | 1.78 | 0.05 | 99 | 1005.0 |
| 20260506235505 | 3 | 291 | 3.2 | 11.3 | 0.05 | 1.83 | 0.05 | 99 | 1005.2 |
| 20260506235005 | 3 | 287 | 3.2 | 11.3 | 0.05 | 1.83 | 0.05 | 99 | 1005.4 |
| 20260506234006 | 4 | 292 | 1.6 | 6.4 | 0.03 | 1.88 | 0.03 | 99 | 1005.5 |
| 20260506233006 | 3 | 297 | 1.6 | 6.4 | 0.00 | 1.85 | 0.00 | 99 | 1005.4 |
| 20260506232006 | 3 | 292 | 3.2 | 6.4 | 0.00 | 1.85 | 0.00 | 99 | 1005.4 |
| 20260506231505 | 3 | 291 | 3.2 | 6.4 | 0.00 | 1.85 | 0.00 | 99 | 1005.3 |
| 20260506231005 | 3 | 293 | 3.2 | 11.3 | 0.00 | 1.85 | 0.00 | 99 | 1005.5 |
| 20260506230005 | 3 | 285 | 3.2 | 6.4 | 0.00 | 1.85 | 0.00 | 99 | 1005.3 |
| 20260506225506 | 3 | 286 | 3.2 | 6.4 | 0.00 | 1.85 | 0.00 | 99 | 1005.2 |
| 20260506224505 | 4 | 261 | 3.2 | 6.4 | 0.00 | 1.85 | 0.00 | 99 | 1005.2 |
| 20260506224005 | 3 | 239 | 3.2 | 12.9 | 0.00 | 1.85 | 0.00 | 99 | 1005.3 |
| 20260506223505 | 5 | 237 | 1.6 | 12.9 | 0.00 | 1.85 | 0.00 | 99 | 1005.2 |